Home   Weather   Gatineau   Past weeks
Flag for Canada

Past Weather in Gatineau, Quebec, Canada — Yesterday and Last 2 Weeks

Now
82 °F

Partly sunny.


Feels Like: 85 °F
Forecast: 82 / 66 °F
Wind: 9 mph from Northwest

Location: Ottawa Int'L. Ont.

Current Time: Jul 17, 2019 at 2:55:49 pm

Latest Report: Jul 17, 2019 at 2:00 pm


Visibility: 15 mi

Pressure: 29.86 "Hg

Humidity: 62%

Dew Point: 68 °F

Location of GatineauLocation

Past Weather in Gatineau — Graph

°F

Gatineau Temperature Yesterday

Maximum temperature yesterday: 86 °F (at 4:00 pm)
Minimum temperature yesterday: 61 °F (at 4:00 am)
Average temperature yesterday: 74 °F

High & Low Weather Summary for the Past Weeks

 TemperatureHumidityPressure
High90 °F (Jul 4, 3:00 pm)100% (Jul 3, 2:00 am)30.09 "Hg (Jul 3, 2:00 am)
Low52 °F (Jul 8, 6:00 am)30% (Jul 6, 7:00 pm)29.67 "Hg (Jul 11, 8:00 pm)
Average73 °F69%29.92 "Hg
* Reported Jul 2 1:00 pm — Jul 17 1:00 pm, Gatineau. Weather by CustomWeather, © 2019

Note: Actual official high and low records may vary slightly from our data, if they occured in-between our weather recording intervals... More about our weather records

Advertising

Gatineau Weather History for the Previous 24 Hours

Scroll right to see more
 ConditionsComfort  
Time TempWeatherWind HumidityBarometerVisibility
1:00 pm
Wed, Jul 17
82 °FPartly sunny.10 mph66%29.87 "Hg15 mi
12:00 pm82 °FBroken clouds.7 mph66%29.86 "Hg15 mi
11:00 am79 °FBroken clouds.2 mph74%29.87 "Hg15 mi
10:00 am77 °FBroken clouds.7 mph79%29.88 "Hg15 mi
9:00 am77 °FBroken clouds.6 mph83%29.87 "Hg15 mi
8:00 am73 °FPartly sunny.5 mph89%29.86 "Hg15 mi
7:00 am73 °FPartly sunny.6 mph89%29.86 "Hg15 mi
6:00 am72 °FPartly sunny.8 mph88%29.85 "Hg15 mi
5:00 am72 °FPartly cloudy.7 mph88%29.84 "Hg15 mi
4:00 am72 °FPassing clouds.7 mph88%29.83 "Hg15 mi
3:00 am73 °FPassing clouds.6 mph83%29.83 "Hg15 mi
2:00 am73 °FPassing clouds.7 mph83%29.84 "Hg15 mi
1:00 am75 °FPassing clouds.8 mph78%29.85 "Hg15 mi
12:00 am77 °FPassing clouds.10 mph74%29.85 "Hg15 mi
11:00 pm
Tue, Jul 16
79 °FPartly cloudy.13 mph70%29.85 "Hg15 mi
10:00 pm81 °FPassing clouds.12 mph66%29.84 "Hg15 mi
9:00 pm82 °FPartly cloudy.14 mph62%29.83 "Hg15 mi
8:00 pm84 °FPartly sunny.8 mph58%29.81 "Hg15 mi
7:00 pm86 °FBroken clouds.15 mph52%29.81 "Hg15 mi
6:00 pm86 °FPartly sunny.12 mph59%29.81 "Hg15 mi
5:00 pm86 °FBroken clouds.15 mph62%29.83 "Hg15 mi
4:00 pm86 °FPartly sunny.15 mph62%29.84 "Hg15 mi
3:00 pm82 °FPartly sunny.12 mph70%29.86 "Hg15 mi
2:00 pm82 °FPartly sunny.15 mph66%29.87 "Hg15 mi
Weather by CustomWeather, © 2019

See weather overview